[[{"header":{"parameterUnit":"m.s-1","parameterCategory":2,"la1":30.2991,"la2":30.254,"lo1":-89.0895,"lo2":-89.0444,"dy":0.0017,"dx":0.0017,"nx":28,"ny":28,"refTime":"2023-11-04T21:00:00:Z","depth":"0","parameterNumber":2,"parameterNumberName":"U-component_of_CURRENTS"},"data":[0,0,0,0,0,0,0,0,0,0,0,0,0,0,0,0,0,0,0,0,0,0,0,0,0,0,0,0,0,0,0,0,0,0,0,0,0,0,0,0,0,0,0,0,0,0,0,0,0,0,0,0,0,0,0,0,0,0,-0.1261,-0.1263,0,-0.1398,-0.14,-0.1401,-0.1416,-0.1415,-0.1414,-0.1413,-0.1401,-0.1401,-0.1402,0,0,0,0,0,0,0,0,0,0,0,0,0,-0.1053,-0.1056,-0.1261,-0.1263,-0.1265,-0.1398,-0.14,-0.1401,-0.1416,-0.1415,-0.1414,-0.1413,-0.1401,-0.1401,-0.1402,0,0,0,0,0,0,0,0,0,0,0,0,0,-0.1157,-0.1057,-0.1261,-0.1293,-0.1297,-0.1398,-0.14,-0.1401,-0.1416,-0.1415,-0.1414,-0.1412,-0.14,-0.1401,-0.1402,-0.1434,0,0,-0.1404,-0.1405,0,0,0,0,0,0,0,0,-0.1151,-0.1164,-0.1286,-0.1291,-0.1296,-0.1393,-0.1322,-0.1407,-0.1417,-0.1366,-0.1413,-0.1412,-0.1389,-0.139,-0.1414,-0.1433,-0.1433,-0.1404,-0.1405,-0.1405,-0.1405,0,0,0,0,0,0,0,-0.1144,-0.1159,-0.131,-0.1288,-0.1295,-0.1315,-0.1327,-0.1339,-0.1376,-0.137,-0.1373,-0.1397,-0.1389,-0.1413,-0.1413,-0.1433,-0.1404,-0.1405,-0.1405,-0.1406,-0.1498,-0.15,0,0,0,0,0,0,-0.1138,-0.1152,-0.1306,-0.1315,-0.1225,-0.132,-0.1333,-0.1359,-0.138,-0.1384,-0.1398,-0.1397,-0.1413,-0.1413,-0.1413,-0.1474,-0.1405,-0.1406,-0.1406,-0.1496,-0.1499,-0.1501,0,0,0,0,0,0,-0.1133,-0.115,-0.13,-0.124,-0.1261,-0.1325,-0.1354,-0.1363,-0.1385,-0.1403,-0.1403,-0.1411,-0.1412,-0.1412,-0.1444,-0.1472,-0.1406,-0.1407,-0.1494,-0.1497,-0.15,-0.1581,0,0,0,0,0,0,-0.1126,-0.1147,-0.1158,-0.124,-0.1265,-0.1368,-0.1356,-0.1367,-0.1405,-0.1405,-0.1415,-0.1413,-0.1411,-0.1444,-0.1445,-0.1472,-0.1408,-0.1492,-0.1495,-0.1499,-0.1576,-0.1587,-0.1596,0,0,0,0,0,-0.1118,-0.1142,-0.1157,-0.1176,-0.1279,-0.137,-0.1385,-0.1421,-0.1407,-0.1431,-0.1444,-0.1413,-0.1468,-0.1447,-0.1448,-0.1475,-0.149,-0.1494,-0.1499,-0.1572,-0.1585,-0.1596,0,0,0,0,0,0,-0.1063,-0.115,-0.1167,-0.1217,-0.1291,-0.1375,-0.14,-0.1424,-0.1456,-0.1446,-0.1444,-0.1446,-0.1485,-0.1472,-0.1449,-0.1514,-0.1471,-0.1476,-0.1526,-0.1538,-0.1548,-0.157,-0.1408,0,0,0,0,0,-0.1057,-0.1091,-0.1185,-0.1226,-0.126,-0.1327,-0.1364,-0.1398,-0.1444,-0.1456,-0.1469,-0.148,-0.1509,-0.1515,-0.1535,-0.157,-0.1579,-0.1587,-0.1597,-0.1605,-0.1626,-0.1666,-0.1681,-0.1516,-0.1516,-0.1516,0,0,-0.1048,-0.1099,-0.112,-0.1215,-0.1267,-0.134,-0.1344,-0.141,-0.1469,-0.1448,-0.1507,-0.1516,-0.1528,-0.1578,-0.1592,-0.1566,-0.1661,-0.1611,-0.1618,-0.1635,-0.1672,-0.1688,-0.1702,-0.1519,-0.1518,-0.1518,0,0,-0.1056,-0.1094,-0.1128,-0.1196,-0.1286,-0.1343,-0.1362,-0.1451,-0.1482,-0.155,-0.1553,-0.1601,-0.1617,-0.1663,-0.1678,-0.1757,-0.1716,-0.173,-0.1794,-0.1832,-0.1846,-0.1858,-0.1906,-0.1922,-0.173,-0.173,-0.173,0,-0.1041,-0.1103,-0.1155,-0.1217,-0.128,-0.1344,-0.1414,-0.1471,-0.156,-0.1601,-0.1573,-0.1669,-0.1677,-0.1769,-0.1791,-0.1784,-0.178,-0.1746,-0.1845,-0.1858,-0.1869,-0.1915,-0.1931,-0.1734,-0.1734,-0.1733,-0.1733,0,-0.1089,-0.114,-0.117,-0.127,-0.1345,-0.1415,-0.1515,-0.158,-0.1614,-0.1673,-0.1762,-0.1794,-0.1852,-0.1858,-0.1844,-0.1931,-0.1897,-0.1856,-0.1814,-0.189,-0.1934,-0.195,-0.1741,-0.1739,-0.1738,-0.1737,0,0,-0.1063,-0.1177,-0.119,-0.1243,-0.1379,-0.1451,-0.156,-0.1686,-0.1759,-0.1824,-0.1912,-0.1984,-0.1992,-0.2012,-0.201,-0.2041,-0.2125,-0.1969,-0.1969,-0.2016,-0.22,-0.2177,-0.2191,-0.2071,-0.2074,-0.2077,-0.2204,0,-0.1088,-0.118,-0.1253,-0.137,-0.1433,-0.1545,-0.1649,-0.1769,-0.1847,-0.1944,-0.2003,-0.2071,-0.2051,-0.2067,-0.2109,-0.2105,-0.2166,-0.2095,-0.212,-0.2122,-0.2091,-0.2209,-0.199,-0.2083,-0.2219,-0.2221,-0.2223,0,-0.1125,-0.1179,-0.1269,-0.1422,-0.1465,-0.1547,-0.1729,-0.1832,-0.1985,-0.2042,-0.2134,-0.2162,-0.2252,-0.2196,-0.2289,-0.2223,-0.2235,-0.2236,-0.2239,-0.2202,-0.2129,-0.2026,-0.2106,-0.2005,-0.2247,-0.2245,-0.2243,0,-0.1077,-0.1211,-0.127,-0.1322,-0.1493,-0.1564,-0.1671,-0.1845,-0.194,-0.2089,-0.2145,-0.2261,-0.2293,-0.2336,-0.2368,-0.2307,-0.2449,-0.2369,-0.2389,-0.2387,-0.2205,-0.2182,-0.2189,-0.2468,-0.2468,-0.2468,-0.2467,0,-0.1088,-0.1148,-0.124,-0.1275,-0.1382,-0.1521,-0.1656,-0.1785,-0.1947,-0.2054,-0.2166,-0.2252,-0.2314,-0.24,-0.2417,-0.2473,-0.2507,-0.2445,-0.2433,-0.2229,-0.2208,-0.2112,-0.2131,-0.2472,-0.2471,-0.247,-0.247,0,-0.1045,-0.11,-0.1174,-0.1305,-0.1351,-0.1426,-0.1624,-0.1727,-0.188,-0.2014,-0.2053,-0.2236,-0.235,-0.2452,-0.2538,-0.2529,-0.2533,-0.2611,-0.2385,-0.2344,-0.2216,-0.2249,-0.2374,-0.2317,-0.2628,-0.2629,-0.2629,0,-0.104,-0.1053,-0.115,-0.1186,-0.124,-0.1361,-0.1458,-0.1659,-0.1767,-0.2002,-0.2056,-0.2224,-0.2353,-0.2523,-0.2521,-0.2603,-0.2586,-0.2468,-0.2334,-0.2228,-0.2255,-0.2293,-0.2237,-0.2128,-0.2124,-0.2121,-0.2118,0,-0.1016,-0.1022,-0.1061,-0.1109,-0.1184,-0.1302,-0.1442,-0.1514,-0.1745,-0.1865,-0.2041,-0.2161,-0.2322,-0.2321,-0.2444,-0.2449,-0.2344,-0.2407,-0.2334,-0.1928,-0.1934,-0.1861,-0.2047,-0.2091,-0.2093,-0.2095,-0.2097,-0.2098,-0.0979,-0.0979,-0.0992,-0.1044,-0.1129,-0.1224,-0.1275,-0.1443,-0.159,-0.1778,-0.1958,-0.2099,-0.2117,-0.2235,-0.2235,-0.2024,-0.2198,-0.1924,-0.1997,-0.2064,-0.1943,-0.2105,-0.2109,-0.2112,-0.2115,-0.2117,-0.2119,0,-0.0945,-0.0929,-0.0948,-0.0996,-0.1045,-0.1124,-0.1255,-0.1299,-0.1419,-0.1642,-0.1819,-0.188,-0.1851,-0.1818,-0.1626,-0.1575,-0.1522,-0.1586,-0.1514,-0.1493,-0.1618,-0.1517,-0.1346,-0.1346,-0.1346,-0.1346,-0.1346,-0.1346,-0.092,-0.0897,-0.0882,-0.0894,-0.0932,-0.0963,-0.1004,-0.1088,-0.1218,-0.1371,-0.1463,-0.1614,-0.1494,-0.1533,-0.1323,-0.127,-0.1244,-0.1277,-0.14,-0.1365,-0.1398,-0.1429,-0.1331,-0.1124,-0.1124,-0.1092,-0.1092,-0.1092]},{"header":{"parameterUnit":"m.s-1","parameterCategory":2,"la1":30.2991,"la2":30.254,"lo1":-89.0895,"lo2":-89.0444,"dy":0.0017,"dx":0.0017,"nx":28,"ny":28,"refTime":"2023-11-04T21:00:00:Z","depth":"0","parameterNumber":3,"parameterNumberName":"V-component_of_CURRENTS"},"data":[0,0,0,0,0,0,0,0,0,0,0,0,0,0,0,0,0,0,0,0,0,0,0,0,0,0,0,0,0,0,0,0,0,0,0,0,0,0,0,0,0,0,0,0,0,0,0,0,0,0,0,0,0,0,0,0,0,0,-0.125,-0.1249,0,-0.1137,-0.1136,-0.1135,-0.1079,-0.1079,-0.1079,-0.1078,-0.097,-0.0967,-0.0964,0,0,0,0,0,0,0,0,0,0,0,0,0,-0.1411,-0.1409,-0.125,-0.1249,-0.1247,-0.1138,-0.1136,-0.1135,-0.1079,-0.1079,-0.1079,-0.1078,-0.0971,-0.0967,-0.0964,0,0,0,0,0,0,0,0,0,0,0,0,0,-0.1327,-0.1408,-0.1251,-0.1204,-0.1199,-0.1138,-0.1136,-0.1135,-0.1079,-0.1079,-0.1078,-0.1078,-0.0972,-0.0968,-0.0964,-0.0946,0,0,-0.0951,-0.095,0,0,0,0,0,0,0,0,-0.1332,-0.1321,-0.1213,-0.1207,-0.1201,-0.112,-0.1153,-0.1071,-0.1079,-0.1127,-0.1078,-0.1078,-0.1019,-0.1011,-0.0994,-0.0941,-0.0936,-0.0951,-0.0949,-0.0947,-0.0946,0,0,0,0,0,0,0,-0.1338,-0.1326,-0.1208,-0.1211,-0.1204,-0.1187,-0.1175,-0.1137,-0.1078,-0.1123,-0.1118,-0.1102,-0.1016,-0.0998,-0.0991,-0.0935,-0.0951,-0.0948,-0.0945,-0.0944,-0.084,-0.0839,0,0,0,0,0,0,-0.1347,-0.1331,-0.1212,-0.1204,-0.1264,-0.1184,-0.1171,-0.1148,-0.1078,-0.1067,-0.1102,-0.1099,-0.1005,-0.0996,-0.0987,-0.0966,-0.0947,-0.0943,-0.0941,-0.084,-0.084,-0.0839,0,0,0,0,0,0,-0.1351,-0.1337,-0.1216,-0.1264,-0.1247,-0.1181,-0.1157,-0.1146,-0.1126,-0.1062,-0.1051,-0.1092,-0.1004,-0.0993,-0.0952,-0.0962,-0.0941,-0.0938,-0.084,-0.084,-0.0839,-0.0923,0,0,0,0,0,0,-0.1356,-0.1339,-0.1336,-0.1264,-0.1244,-0.1185,-0.1157,-0.1144,-0.1115,-0.1111,-0.105,-0.104,-0.1003,-0.0958,-0.0948,-0.0956,-0.0935,-0.0841,-0.084,-0.084,-0.092,-0.0925,-0.0929,0,0,0,0,0,-0.1362,-0.1362,-0.1336,-0.1322,-0.1239,-0.1185,-0.1174,-0.1128,-0.1115,-0.1109,-0.1066,-0.1041,-0.0947,-0.0955,-0.0943,-0.095,-0.0841,-0.084,-0.084,-0.0918,-0.0924,-0.0929,0,0,0,0,0,0,-0.1444,-0.1353,-0.1325,-0.13,-0.1247,-0.1175,-0.117,-0.1133,-0.1094,-0.1092,-0.1037,-0.1023,-0.0992,-0.0954,-0.0965,-0.0915,-0.089,-0.0887,-0.0954,-0.0958,-0.0963,-0.0974,-0.0931,0,0,0,0,0,-0.1456,-0.1426,-0.1343,-0.1329,-0.1304,-0.1238,-0.1214,-0.1176,-0.1126,-0.1109,-0.1062,-0.1015,-0.0979,-0.0957,-0.0915,-0.0889,-0.0874,-0.0883,-0.0888,-0.0892,-0.089,-0.0863,-0.0866,-0.0837,-0.0837,-0.0837,0,0,-0.1487,-0.1433,-0.1418,-0.1343,-0.1303,-0.1272,-0.1224,-0.1188,-0.1168,-0.1103,-0.1074,-0.1029,-0.0974,-0.0945,-0.0928,-0.0916,-0.09,-0.0891,-0.0895,-0.0891,-0.0863,-0.0866,-0.0869,-0.0836,-0.0836,-0.0836,0,0,-0.1528,-0.1483,-0.1468,-0.142,-0.1351,-0.1308,-0.1299,-0.1222,-0.1197,-0.1155,-0.1108,-0.1066,-0.1006,-0.0968,-0.0943,-0.0943,-0.0924,-0.0931,-0.0963,-0.0938,-0.0941,-0.0943,-0.0972,-0.0975,-0.0934,-0.0934,-0.0934,0,-0.1572,-0.1529,-0.1461,-0.1431,-0.1405,-0.1328,-0.1315,-0.1276,-0.1197,-0.1187,-0.1157,-0.1073,-0.1018,-0.0993,-0.0981,-0.0955,-0.0954,-0.0955,-0.0947,-0.0948,-0.0949,-0.0977,-0.098,-0.0938,-0.0937,-0.0937,-0.0937,0,-0.1587,-0.1555,-0.1548,-0.1481,-0.1452,-0.1426,-0.1357,-0.1331,-0.1292,-0.1251,-0.1214,-0.1137,-0.1086,-0.1063,-0.1016,-0.0996,-0.1001,-0.096,-0.0943,-0.0958,-0.0986,-0.0988,-0.0943,-0.0942,-0.0941,-0.094,0,0,-0.1675,-0.1577,-0.1573,-0.1553,-0.1472,-0.1452,-0.143,-0.1391,-0.1387,-0.1317,-0.1316,-0.1226,-0.118,-0.1145,-0.1086,-0.1052,-0.1055,-0.1007,-0.1004,-0.1053,-0.1044,-0.0875,-0.0862,-0.1015,-0.1014,-0.1014,-0.1079,0,-0.1708,-0.167,-0.1613,-0.1599,-0.1578,-0.1513,-0.1504,-0.1464,-0.1422,-0.1401,-0.1334,-0.1298,-0.1215,-0.1188,-0.1142,-0.107,-0.1056,-0.1044,-0.1005,-0.1005,-0.0866,-0.0855,-0.0683,-0.0708,-0.1081,-0.1081,-0.1081,0,-0.1736,-0.1704,-0.169,-0.1649,-0.1639,-0.1626,-0.1607,-0.1583,-0.1538,-0.1511,-0.1464,-0.1401,-0.1341,-0.1262,-0.1175,-0.1173,-0.1111,-0.1062,-0.1062,-0.0869,-0.0836,-0.0741,-0.0697,-0.0421,-0.1084,-0.1084,-0.1083,0,-0.1819,-0.1764,-0.176,-0.1738,-0.1679,-0.1682,-0.1663,-0.1622,-0.1619,-0.1576,-0.1577,-0.1495,-0.1466,-0.1364,-0.1232,-0.1207,-0.1153,-0.1109,-0.0922,-0.0914,-0.0736,-0.0709,-0.0423,-0.1056,-0.1056,-0.1055,-0.1055,0,-0.1867,-0.1863,-0.1796,-0.1788,-0.1807,-0.1749,-0.1769,-0.1739,-0.1715,-0.1733,-0.1634,-0.1649,-0.1481,-0.1418,-0.1291,-0.1108,-0.1201,-0.0921,-0.0896,-0.0761,-0.0737,-0.046,-0.0414,-0.1058,-0.1057,-0.1057,-0.1056,0,-0.1942,-0.1895,-0.1889,-0.1844,-0.1837,-0.1852,-0.1836,-0.1846,-0.1817,-0.184,-0.1832,-0.1777,-0.1685,-0.1523,-0.1383,-0.1179,-0.086,-0.0953,-0.0823,-0.0774,-0.0253,-0.0223,-0.0031,0.0096,-0.0732,-0.0728,-0.0724,0,-0.1972,-0.1967,-0.1938,-0.1941,-0.1918,-0.1926,-0.1931,-0.1903,-0.1924,-0.1931,-0.1966,-0.1888,-0.1868,-0.1595,-0.1202,-0.0934,-0.0785,-0.0577,-0.0441,-0.0174,-0.0124,-0.0137,-0.0047,-0.0293,-0.0286,-0.0281,-0.0276,0,-0.2021,-0.2005,-0.1991,-0.2003,-0.2012,-0.2029,-0.2043,-0.2082,-0.2067,-0.2105,-0.2179,-0.2173,-0.185,-0.1456,-0.0992,-0.0771,-0.0326,-0.0447,-0.0194,0.0247,0.0271,0.0388,-0.036,-0.0227,-0.0232,-0.0235,-0.0238,-0.024,-0.2052,-0.2051,-0.2031,-0.2052,-0.2067,-0.2111,-0.2144,-0.2206,-0.2274,-0.2357,-0.2369,-0.2337,-0.1603,-0.0921,-0.0657,0.0214,0.0006,0.0478,0.0475,0.0426,0.0645,0.0008,0.0212,0.021,0.0208,0.0206,0.0205,0,-0.208,-0.2061,-0.2075,-0.2089,-0.2118,-0.2121,-0.2195,-0.2261,-0.2381,-0.2451,-0.2548,-0.1868,-0.116,-0.0403,0.0781,0.1139,0.1172,0.1294,0.1332,0.1366,0.0816,0.095,0.1357,0.1357,0.1357,0.1357,0.1356,0.1356,-0.208,-0.2081,-0.208,-0.2119,-0.2131,-0.2189,-0.2233,-0.2375,-0.2437,-0.2381,-0.2108,-0.1884,-0.0513,0.0884,0.1874,0.1946,0.2109,0.2067,0.209,0.1767,0.1691,0.1619,0.1768,0.234,0.2341,0.2703,0.2707,0.271]}],[{"header":{"parameterUnit":"m.s-1","parameterCategory":2,"la1":30.2991,"la2":30.254,"lo1":-89.0895,"lo2":-89.0444,"dy":0.0017,"dx":0.0017,"nx":28,"ny":28,"refTime":"2023-11-04T21:00:00:Z","depth":"2","parameterNumber":2,"parameterNumberName":"U-component_of_CURRENTS"},"data":[0,0,0,0,0,0,0,0,0,0,0,0,0,0,0,0,0,0,0,0,0,0,0,0,0,0,0,0,0,0,0,0,0,0,0,0,0,0,0,0,0,0,0,0,0,0,0,0,0,0,0,0,0,0,0,0,0,0,-0.2498,-0.2499,0,-0.2603,-0.2604,-0.2604,-0.2599,-0.2598,-0.2597,-0.2596,-0.2525,-0.2523,-0.2522,0,0,0,0,0,0,0,0,0,0,0,0,0,-0.2388,-0.2389,-0.2498,-0.25,-0.2502,-0.2603,-0.2604,-0.2605,-0.2599,-0.2598,-0.2597,-0.2596,-0.2525,-0.2524,-0.2522,0,0,0,0,0,0,0,0,0,0,0,0,0,-0.2452,-0.2389,-0.2497,-0.2516,-0.2519,-0.2603,-0.2604,-0.2605,-0.2599,-0.2598,-0.2597,-0.2595,-0.2525,-0.2524,-0.2522,-0.2539,0,0,-0.2517,-0.2516,0,0,0,0,0,0,0,0,-0.2448,-0.2455,-0.2511,-0.2515,-0.2519,-0.2592,-0.254,-0.2576,-0.26,-0.2562,-0.2596,-0.2595,-0.2536,-0.2534,-0.2549,-0.2536,-0.2532,-0.2517,-0.2516,-0.2515,-0.2515,0,0,0,0,0,0,0,-0.2444,-0.2451,-0.2532,-0.2514,-0.2518,-0.2553,-0.2559,-0.2547,-0.2547,-0.2565,-0.2566,-0.259,-0.2536,-0.2551,-0.2547,-0.2531,-0.2517,-0.2516,-0.2515,-0.2514,-0.2534,-0.2535,0,0,0,0,0,0,-0.2441,-0.2447,-0.2529,-0.2536,-0.2487,-0.2556,-0.2562,-0.2565,-0.2551,-0.2551,-0.2591,-0.2589,-0.2555,-0.2549,-0.2544,-0.2574,-0.2515,-0.2514,-0.2513,-0.2532,-0.2534,-0.2536,0,0,0,0,0,0,-0.2438,-0.2447,-0.2525,-0.2501,-0.2514,-0.2559,-0.2562,-0.2568,-0.2594,-0.2573,-0.2568,-0.2613,-0.2553,-0.2547,-0.2539,-0.257,-0.2513,-0.2512,-0.2531,-0.2533,-0.2535,-0.2624,0,0,0,0,0,0,-0.2434,-0.2444,-0.2474,-0.25,-0.2515,-0.2586,-0.2564,-0.2571,-0.2613,-0.2612,-0.2591,-0.2583,-0.2552,-0.2542,-0.2538,-0.2566,-0.251,-0.2529,-0.2532,-0.2534,-0.2619,-0.2629,-0.2638,0,0,0,0,0,-0.2429,-0.2472,-0.2474,-0.2486,-0.2543,-0.2589,-0.26,-0.2623,-0.2616,-0.2639,-0.2615,-0.2584,-0.2557,-0.2542,-0.2536,-0.2565,-0.2527,-0.2531,-0.2534,-0.2615,-0.2627,-0.2637,0,0,0,0,0,0,-0.2448,-0.2477,-0.2479,-0.253,-0.2562,-0.259,-0.2636,-0.2638,-0.2644,-0.2638,-0.2599,-0.259,-0.2596,-0.2571,-0.2556,-0.2581,-0.2539,-0.2542,-0.2603,-0.2614,-0.2623,-0.2624,-0.2509,0,0,0,0,0,-0.2465,-0.2494,-0.2524,-0.2566,-0.2587,-0.2611,-0.2644,-0.2648,-0.2652,-0.2656,-0.2637,-0.2618,-0.2609,-0.2602,-0.2587,-0.2601,-0.2582,-0.2618,-0.2627,-0.2635,-0.2633,-0.2624,-0.2632,-0.2547,-0.2547,-0.2547,0,0,-0.2481,-0.2508,-0.2523,-0.2572,-0.26,-0.2642,-0.2626,-0.2672,-0.2699,-0.2644,-0.2672,-0.2648,-0.2619,-0.2632,-0.2634,-0.2613,-0.2657,-0.2639,-0.2646,-0.264,-0.2629,-0.2637,-0.2644,-0.2549,-0.2549,-0.2548,0,0,-0.253,-0.2552,-0.2594,-0.2624,-0.2676,-0.2687,-0.2702,-0.2729,-0.2738,-0.2761,-0.2726,-0.2716,-0.2713,-0.2692,-0.2683,-0.2734,-0.2705,-0.2741,-0.2789,-0.2781,-0.2788,-0.2793,-0.2813,-0.2819,-0.2747,-0.2747,-0.2747,0,-0.2551,-0.2599,-0.2617,-0.2669,-0.2697,-0.2706,-0.2746,-0.2771,-0.2787,-0.2774,-0.2778,-0.2765,-0.2741,-0.2744,-0.2766,-0.2754,-0.2755,-0.2749,-0.2793,-0.2797,-0.2801,-0.2819,-0.2825,-0.2752,-0.2751,-0.2751,-0.275,0,-0.261,-0.267,-0.2702,-0.2753,-0.2785,-0.2823,-0.2846,-0.2857,-0.2861,-0.2862,-0.2868,-0.2856,-0.2826,-0.2844,-0.2824,-0.2846,-0.2842,-0.2805,-0.2764,-0.2815,-0.2831,-0.2836,-0.2758,-0.2757,-0.2755,-0.2754,0,0,-0.2595,-0.2714,-0.273,-0.2746,-0.2823,-0.2825,-0.2881,-0.2893,-0.2857,-0.2923,-0.2896,-0.2938,-0.2909,-0.2897,-0.288,-0.29,-0.2944,-0.2878,-0.2875,-0.2896,-0.2957,-0.2718,-0.27,-0.2919,-0.2919,-0.292,-0.2969,0,-0.2632,-0.2731,-0.278,-0.2836,-0.2875,-0.2885,-0.2898,-0.2903,-0.2899,-0.287,-0.2907,-0.2882,-0.2939,-0.2905,-0.2946,-0.2936,-0.2955,-0.2936,-0.2903,-0.2903,-0.2681,-0.2695,-0.2505,-0.251,-0.2973,-0.2973,-0.2974,0,-0.2666,-0.2725,-0.281,-0.2824,-0.283,-0.2862,-0.2813,-0.2826,-0.2813,-0.2799,-0.283,-0.2824,-0.2894,-0.2894,-0.2987,-0.2978,-0.297,-0.2982,-0.2982,-0.2722,-0.2668,-0.2526,-0.25,-0.2981,-0.298,-0.298,-0.2979,0,-0.2617,-0.272,-0.2773,-0.2796,-0.2835,-0.2838,-0.2837,-0.2815,-0.2763,-0.2765,-0.273,-0.2803,-0.2838,-0.2887,-0.2957,-0.296,-0.3028,-0.3013,-0.2803,-0.2789,-0.2596,-0.256,-0.3022,-0.3022,-0.3022,-0.3022,-0.3022,0,-0.2625,-0.2649,-0.2756,-0.2779,-0.2744,-0.2797,-0.2714,-0.2715,-0.2681,-0.2634,-0.27,-0.2677,-0.2837,-0.2892,-0.2939,-0.2901,-0.302,-0.2802,-0.2766,-0.2622,-0.2589,-0.2961,-0.2953,-0.3024,-0.3024,-0.3023,-0.3023,0,-0.2566,-0.2658,-0.2693,-0.2751,-0.274,-0.2722,-0.2648,-0.2566,-0.259,-0.2547,-0.2559,-0.2617,-0.2698,-0.2818,-0.2891,-0.2845,-0.2832,-0.2769,-0.2601,-0.2538,-0.2612,-0.2609,-0.2532,-0.2524,-0.2517,-0.2511,-0.2506,0,-0.2543,-0.2577,-0.2644,-0.2645,-0.2682,-0.2634,-0.256,-0.2528,-0.2457,-0.2501,-0.2473,-0.2548,-0.2533,-0.2556,-0.2521,-0.2519,-0.2667,-0.2268,-0.2185,-0.2579,-0.2554,-0.2562,-0.2568,-0.2021,-0.2013,-0.2006,-0.2,0,-0.2461,-0.2511,-0.2537,-0.2558,-0.2532,-0.2419,-0.2361,-0.2283,-0.228,-0.2282,-0.2305,-0.2308,-0.2312,-0.2171,-0.2107,-0.2078,-0.2252,-0.2108,-0.2582,-0.2121,-0.2084,-0.2063,-0.209,-0.1937,-0.1944,-0.1948,-0.1952,-0.1954,-0.237,-0.2371,-0.2426,-0.2407,-0.2377,-0.2248,-0.212,-0.2075,-0.1971,-0.1962,-0.2067,-0.1993,-0.1954,-0.1684,-0.1651,-0.1631,-0.1768,-0.1689,-0.1718,-0.1753,-0.163,-0.1575,-0.1317,-0.1319,-0.1321,-0.1323,-0.1325,0,-0.2214,-0.2236,-0.2245,-0.2203,-0.2107,-0.2149,-0.1982,-0.183,-0.1731,-0.1712,-0.1713,-0.1438,-0.1284,-0.1309,-0.116,-0.109,-0.1176,-0.1055,-0.1196,-0.1253,-0.1306,-0.117,-0.0731,-0.073,-0.0728,-0.0727,0,0,-0.2139,-0.2085,-0.2091,-0.1926,-0.1922,-0.1725,-0.1633,-0.1494,-0.137,-0.1199,-0.1114,-0.1131,-0.1137,-0.0874,-0.0849,-0.078,-0.1013,-0.0733,-0.1198,-0.1415,-0.1466,-0.1642,-0.149,0,0,0,0,0]},{"header":{"parameterUnit":"m.s-1","parameterCategory":2,"la1":30.2991,"la2":30.254,"lo1":-89.0895,"lo2":-89.0444,"dy":0.0017,"dx":0.0017,"nx":28,"ny":28,"refTime":"2023-11-04T21:00:00:Z","depth":"2","parameterNumber":3,"parameterNumberName":"V-component_of_CURRENTS"},"data":[0,0,0,0,0,0,0,0,0,0,0,0,0,0,0,0,0,0,0,0,0,0,0,0,0,0,0,0,0,0,0,0,0,0,0,0,0,0,0,0,0,0,0,0,0,0,0,0,0,0,0,0,0,0,0,0,0,0,0.051,0.0512,0,0.0714,0.0716,0.0719,0.0798,0.0797,0.0796,0.0796,0.0849,0.0851,0.0853,0,0,0,0,0,0,0,0,0,0,0,0,0,0.0453,0.0452,0.051,0.0512,0.0515,0.0713,0.0716,0.0719,0.0798,0.0797,0.0796,0.0796,0.0848,0.0851,0.0853,0,0,0,0,0,0,0,0,0,0,0,0,0,0.055,0.0452,0.0509,0.0577,0.0585,0.0713,0.0716,0.072,0.0798,0.0797,0.0796,0.0795,0.0848,0.0851,0.0854,0.0894,0,0,0.0863,0.0864,0,0,0,0,0,0,0,0,0.0544,0.0552,0.0564,0.0572,0.0581,0.0728,0.0716,0.077,0.0798,0.0719,0.0796,0.0795,0.0794,0.0802,0.0847,0.0897,0.0899,0.0863,0.0865,0.0867,0.0868,0,0,0,0,0,0,0,0.0537,0.0545,0.0592,0.0567,0.0578,0.0687,0.0698,0.0729,0.0758,0.0726,0.0732,0.0752,0.0798,0.0844,0.0848,0.09,0.0863,0.0866,0.0868,0.0869,0.0944,0.0944,0,0,0,0,0,0,0.0496,0.0537,0.0586,0.0598,0.0558,0.0688,0.07,0.0683,0.0762,0.0773,0.0753,0.0755,0.0839,0.0844,0.085,0.0866,0.0867,0.087,0.0871,0.0944,0.0944,0.0944,0,0,0,0,0,0,0.0493,0.0496,0.0577,0.0574,0.0592,0.0688,0.0671,0.0688,0.0728,0.0784,0.0792,0.0773,0.0838,0.0846,0.0863,0.0869,0.0871,0.0874,0.0944,0.0944,0.0944,0.092,0,0,0,0,0,0,0.049,0.0493,0.0498,0.0569,0.059,0.0634,0.0672,0.0693,0.0742,0.0747,0.0804,0.0809,0.0838,0.0858,0.0866,0.0874,0.0876,0.0944,0.0944,0.0944,0.0921,0.092,0.0918,0,0,0,0,0,0.0486,0.0479,0.0496,0.0504,0.0581,0.0634,0.0655,0.0724,0.0743,0.0757,0.0791,0.0807,0.0865,0.086,0.087,0.0879,0.0944,0.0944,0.0944,0.0921,0.092,0.0918,0,0,0,0,0,0,0.0482,0.0488,0.0508,0.051,0.0561,0.0646,0.0678,0.0719,0.0767,0.0761,0.081,0.0818,0.0834,0.0858,0.0852,0.09,0.0907,0.0909,0.0886,0.0885,0.0884,0.0876,0.0879,0,0,0,0,0,0.0475,0.0448,0.05,0.0504,0.0521,0.06,0.0641,0.0672,0.0717,0.0739,0.0773,0.0809,0.0849,0.0864,0.0891,0.0921,0.0939,0.0932,0.0931,0.093,0.0929,0.0973,0.0976,0.0945,0.0945,0.0945,0,0,0.0476,0.0478,0.0469,0.05,0.0545,0.0568,0.062,0.0654,0.0683,0.0732,0.0766,0.0799,0.0852,0.0882,0.0893,0.0901,0.0943,0.093,0.0929,0.0929,0.0974,0.0977,0.098,0.0946,0.0946,0.0946,0,0,0.0442,0.046,0.0421,0.0454,0.0496,0.0549,0.0548,0.061,0.0648,0.0677,0.0727,0.0768,0.0808,0.087,0.0904,0.0914,0.0929,0.0911,0.0909,0.0951,0.0954,0.0957,0.0963,0.0967,0.0918,0.0918,0.0918,0,0.0451,0.0402,0.0433,0.0418,0.0446,0.0526,0.0519,0.0583,0.0644,0.0665,0.0665,0.0768,0.0812,0.0893,0.0898,0.0915,0.0918,0.0911,0.095,0.0954,0.0957,0.0962,0.0967,0.0917,0.0917,0.0917,0.0917,0,0.0379,0.0367,0.0354,0.0347,0.0389,0.0395,0.0471,0.0503,0.0546,0.0602,0.0661,0.0741,0.0797,0.0831,0.0869,0.0929,0.0915,0.0937,0.0953,0.0959,0.0963,0.0968,0.0915,0.0916,0.0916,0.0916,0,0,0.0335,0.03,0.03,0.0284,0.0345,0.0361,0.041,0.0472,0.0473,0.057,0.0586,0.0716,0.0757,0.08,0.0872,0.0932,0.0964,0.0937,0.094,0.0939,0.1019,0.0978,0.098,0.0983,0.0984,0.0985,0.1004,0,0.0277,0.0197,0.022,0.0202,0.0182,0.0269,0.0297,0.0367,0.0418,0.0448,0.0597,0.063,0.0752,0.0755,0.0851,0.0936,0.0978,0.0954,0.1016,0.1017,0.098,0.0986,0.0931,0.0941,0.1009,0.101,0.1011,0,0.0202,0.0159,0.0088,0.0089,0.0089,0.0099,0.0135,0.0177,0.0271,0.0302,0.041,0.0487,0.0646,0.0696,0.0905,0.0877,0.0934,0.1004,0.1006,0.0982,0.0987,0.0951,0.0947,0.1019,0.1019,0.1018,0.1017,0,0.0121,0.0084,0.0011,0.0013,0.0023,0.0015,0.005,0.0117,0.0133,0.021,0.0206,0.0399,0.048,0.0629,0.083,0.0838,0.1007,0.1031,0.1052,0.1048,0.1023,0.1015,0.1116,0.1116,0.1116,0.1116,0.1116,0,0.0048,0.0004,-0.0048,-0.0083,-0.0144,-0.0089,-0.0131,-0.0079,-0.0037,-0.0017,0.0131,0.0188,0.0462,0.0608,0.0769,0.0949,0.0974,0.1046,0.1057,0.1009,0.1,0.1091,0.1088,0.1117,0.1117,0.1117,0.1116,0,-0.0023,-0.0065,-0.0143,-0.0181,-0.0195,-0.0231,-0.0226,-0.0251,-0.0198,-0.0176,-0.0153,0.0042,0.0265,0.0509,0.0743,0.086,0.1021,0.1053,0.0964,0.0964,0.1034,0.1029,0.1064,0.1062,0.1061,0.1061,0.106,0,-0.0072,-0.0139,-0.0228,-0.0279,-0.0301,-0.0346,-0.0373,-0.0329,-0.034,-0.0239,-0.0227,-0.004,0.0154,0.0488,0.071,0.0947,0.1004,0.0961,0.0979,0.1024,0.1032,0.1029,0.1026,0.0928,0.0926,0.0925,0.0924,0,-0.0145,-0.0196,-0.0264,-0.0383,-0.044,-0.0489,-0.0515,-0.0545,-0.0473,-0.0433,-0.0308,-0.0157,0.0169,0.0451,0.0715,0.0841,0.093,0.0935,0.1025,0.0944,0.0897,0.0904,0.0906,0.0912,0.0913,0.0914,0.0914,0.0915,-0.0193,-0.0261,-0.037,-0.047,-0.0544,-0.0603,-0.0633,-0.0622,-0.0606,-0.0478,-0.0344,-0.0082,0.0135,0.0549,0.0714,0.0842,0.087,0.0893,0.0897,0.0903,0.0878,0.0832,0.0828,0.0828,0.0829,0.083,0.083,0,-0.0234,-0.0325,-0.0435,-0.0548,-0.0627,-0.0664,-0.0708,-0.0687,-0.0634,-0.0454,-0.0275,-0.0016,0.0263,0.0507,0.0692,0.079,0.08,0.0798,0.0805,0.0815,0.0824,0.0797,0.0724,0.0724,0.0724,0.0725,0,0,-0.0261,-0.0371,-0.0435,-0.0586,-0.0678,-0.0753,-0.0779,-0.0711,-0.0588,-0.0368,-0.0177,0.0071,0.031,0.0413,0.0551,0.0656,0.0704,0.0648,0.0716,0.0716,0.0724,0.0854,0.0819,0,0,0,0,0]}],[{"header":{"parameterUnit":"m.s-1","parameterCategory":2,"la1":30.2991,"la2":30.254,"lo1":-89.0895,"lo2":-89.0444,"dy":0.0017,"dx":0.0017,"nx":28,"ny":28,"refTime":"2023-11-04T21:00:00:Z","depth":"4","parameterNumber":2,"parameterNumberName":"U-component_of_CURRENTS"},"data":[0,0,0,0,0,0,0,0,0,0,0,0,0,0,0,0,0,0,0,0,0,0,0,0,0,0,0,0,0,0,0,0,0,0,0,0,0,0,0,0,0,0,0,0,0,0,0,0,0,0,0,0,0,0,0,0,0,0,-0.111,-0.1111,0,-0.1156,-0.1157,-0.1157,-0.1184,-0.1185,-0.1185,-0.1186,-0.1244,-0.1245,-0.1246,0,0,0,0,0,0,0,0,0,0,0,0,0,-0.1025,-0.1026,-0.111,-0.1111,-0.1112,-0.1156,-0.1157,-0.1157,-0.1184,-0.1185,-0.1186,-0.1186,-0.1243,-0.1245,-0.1246,0,0,0,0,0,0,0,0,0,0,0,0,0,-0.1062,-0.1026,-0.111,-0.1134,-0.1137,-0.1156,-0.1157,-0.1157,-0.1184,-0.1185,-0.1186,-0.1186,-0.1243,-0.1244,-0.1246,-0.124,0,0,-0.1251,-0.1252,0,0,0,0,0,0,0,0,-0.1059,-0.1064,-0.113,-0.1133,-0.1136,-0.1169,-0.1148,-0.1187,-0.1184,-0.1162,-0.1186,-0.1187,-0.1222,-0.1225,-0.1226,-0.1243,-0.1246,-0.1251,-0.1252,-0.1253,-0.1253,0,0,0,0,0,0,0,-0.1057,-0.1062,-0.1124,-0.1131,-0.1135,-0.1136,-0.1142,-0.1155,-0.1184,-0.1164,-0.1167,-0.1179,-0.1223,-0.1224,-0.1228,-0.1246,-0.1251,-0.1252,-0.1253,-0.1254,-0.1365,-0.1367,0,0,0,0,0,0,-0.106,-0.106,-0.1123,-0.1126,-0.1104,-0.1137,-0.1144,-0.1154,-0.1184,-0.119,-0.1178,-0.118,-0.1221,-0.1226,-0.123,-0.1298,-0.1253,-0.1254,-0.1255,-0.1363,-0.1365,-0.1367,0,0,0,0,0,0,-0.1058,-0.1065,-0.1121,-0.1097,-0.1105,-0.1139,-0.115,-0.1155,-0.118,-0.1195,-0.1201,-0.1201,-0.1222,-0.1228,-0.1284,-0.1298,-0.1255,-0.1256,-0.136,-0.1364,-0.1366,-0.1388,0,0,0,0,0,0,-0.1055,-0.1064,-0.1075,-0.1098,-0.1107,-0.1157,-0.115,-0.1155,-0.1186,-0.119,-0.1216,-0.1221,-0.1223,-0.1281,-0.1285,-0.1299,-0.1257,-0.1358,-0.1362,-0.1365,-0.1384,-0.1391,-0.1397,0,0,0,0,0,-0.1052,-0.1067,-0.1075,-0.1083,-0.112,-0.1159,-0.1164,-0.1186,-0.1187,-0.1208,-0.1237,-0.1222,-0.1307,-0.1285,-0.1288,-0.1303,-0.1356,-0.1361,-0.1365,-0.1382,-0.139,-0.1396,0,0,0,0,0,0,-0.1028,-0.1072,-0.1081,-0.1106,-0.1142,-0.1166,-0.1184,-0.1198,-0.1233,-0.1241,-0.1249,-0.1257,-0.1306,-0.1313,-0.1287,-0.1351,-0.1328,-0.1333,-0.1339,-0.1347,-0.1353,-0.1342,-0.1259,0,0,0,0,0,-0.1029,-0.1055,-0.1095,-0.1115,-0.1135,-0.1161,-0.1179,-0.12,-0.1233,-0.1249,-0.1275,-0.1302,-0.1322,-0.1343,-0.1365,-0.1402,-0.1394,-0.1417,-0.1423,-0.1428,-0.1426,-0.1439,-0.1445,-0.1382,-0.1382,-0.1382,0,0,-0.1019,-0.1051,-0.1062,-0.1113,-0.1135,-0.1164,-0.1174,-0.1214,-0.1239,-0.1249,-0.13,-0.1324,-0.1339,-0.1381,-0.1403,-0.1392,-0.1443,-0.1434,-0.1437,-0.1432,-0.1445,-0.145,-0.1455,-0.1385,-0.1385,-0.1384,0,0,-0.102,-0.1048,-0.1073,-0.1107,-0.1161,-0.1179,-0.1198,-0.1247,-0.1273,-0.133,-0.1336,-0.1377,-0.1425,-0.1432,-0.1438,-0.1494,-0.1473,-0.1508,-0.1529,-0.1543,-0.1548,-0.1551,-0.1544,-0.1547,-0.1513,-0.1513,-0.1513,0,-0.1012,-0.1043,-0.1086,-0.1122,-0.1149,-0.1188,-0.1218,-0.1245,-0.131,-0.1344,-0.1359,-0.143,-0.1441,-0.1468,-0.1492,-0.1502,-0.1507,-0.1493,-0.1548,-0.1551,-0.1555,-0.1546,-0.1549,-0.1514,-0.1514,-0.1514,-0.1514,0,-0.1024,-0.1059,-0.1078,-0.1132,-0.1171,-0.1204,-0.1254,-0.1309,-0.135,-0.138,-0.1447,-0.1471,-0.1516,-0.1522,-0.1523,-0.1555,-0.1549,-0.1548,-0.1519,-0.1562,-0.1551,-0.1553,-0.1516,-0.1516,-0.1515,-0.1515,0,0,-0.0971,-0.1069,-0.1072,-0.111,-0.1181,-0.1214,-0.1275,-0.1341,-0.139,-0.1447,-0.1502,-0.1534,-0.1558,-0.1567,-0.1571,-0.1582,-0.1604,-0.1583,-0.1583,-0.1557,-0.1628,-0.1538,-0.1532,-0.1619,-0.162,-0.1621,-0.1608,0,-0.0965,-0.1027,-0.1081,-0.1136,-0.1172,-0.1248,-0.1305,-0.1376,-0.1438,-0.1506,-0.1529,-0.1575,-0.1567,-0.1596,-0.1606,-0.1609,-0.1614,-0.1607,-0.1607,-0.1606,-0.1506,-0.1533,-0.1623,-0.1609,-0.161,-0.161,-0.161,0,-0.0945,-0.0997,-0.1052,-0.1163,-0.1188,-0.1227,-0.134,-0.1402,-0.15,-0.1557,-0.1607,-0.163,-0.1651,-0.1642,-0.1651,-0.1654,-0.1646,-0.1638,-0.1637,-0.1545,-0.152,-0.1563,-0.1615,-0.1614,-0.1614,-0.1614,-0.1613,0,-0.0869,-0.0973,-0.1017,-0.1049,-0.1177,-0.1229,-0.1298,-0.1413,-0.148,-0.1577,-0.1627,-0.1666,-0.1681,-0.1688,-0.1674,-0.1677,-0.1674,-0.1674,-0.1578,-0.1571,-0.1644,-0.164,-0.1678,-0.1678,-0.1678,-0.1678,-0.1678,0,-0.0825,-0.0868,-0.0989,-0.1007,-0.1095,-0.1194,-0.1287,-0.1382,-0.1492,-0.1546,-0.1632,-0.1653,-0.1698,-0.1703,-0.169,-0.1631,-0.1686,-0.1577,-0.1563,-0.1655,-0.1652,-0.1645,-0.1641,-0.1678,-0.1678,-0.1678,-0.1678,0,-0.0742,-0.0816,-0.0878,-0.1003,-0.106,-0.1115,-0.1273,-0.1334,-0.1454,-0.1524,-0.1551,-0.1646,-0.1647,-0.167,-0.1671,-0.1631,-0.1598,-0.1564,-0.1649,-0.1641,-0.1482,-0.1481,-0.1458,-0.1455,-0.1452,-0.145,-0.1448,0,-0.0708,-0.0727,-0.0852,-0.0894,-0.0953,-0.1062,-0.1142,-0.1298,-0.1346,-0.1487,-0.149,-0.1549,-0.1586,-0.1502,-0.1556,-0.1531,-0.1515,-0.1501,-0.15,-0.1471,-0.1461,-0.1464,-0.1465,-0.1443,-0.1443,-0.1442,-0.1441,0,-0.064,-0.0678,-0.0722,-0.0794,-0.0868,-0.0984,-0.1085,-0.1117,-0.1271,-0.138,-0.1381,-0.1401,-0.1405,-0.1413,-0.1411,-0.1393,-0.1517,-0.1472,-0.1478,-0.1476,-0.1453,-0.1447,-0.1452,-0.1432,-0.1433,-0.1434,-0.1435,0,-0.0576,-0.0584,-0.0621,-0.0684,-0.0776,-0.0858,-0.095,-0.1003,-0.1085,-0.1227,-0.1209,-0.128,-0.1352,-0.134,-0.1332,-0.1319,-0.1307,-0.1279,-0.1294,-0.1306,-0.1269,-0.1219,-0.1107,0,0,0,0,0,-0.0516,-0.0502,-0.0524,-0.0583,-0.0662,-0.0731,-0.089,-0.0979,-0.111,-0.1065,-0.1138,-0.1131,-0.1149,-0.1196,-0.1152,-0.1292,-0.1325,-0.1241,-0.1303,-0.1379,-0.139,-0.1365,0,0,0,0,0,0,-0.0474,-0.0475,-0.0471,-0.0473,-0.0497,-0.0601,-0.0701,-0.0814,-0.0806,-0.0929,-0.0932,-0.1036,-0.106,-0.1111,-0.1102,-0.1123,-0.1141,-0.1296,-0.1294,-0.1372,-0.1382,-0.1391,-0.137,0,0,0,0,0]},{"header":{"parameterUnit":"m.s-1","parameterCategory":2,"la1":30.2991,"la2":30.254,"lo1":-89.0895,"lo2":-89.0444,"dy":0.0017,"dx":0.0017,"nx":28,"ny":28,"refTime":"2023-11-04T21:00:00:Z","depth":"4","parameterNumber":3,"parameterNumberName":"V-component_of_CURRENTS"},"data":[0,0,0,0,0,0,0,0,0,0,0,0,0,0,0,0,0,0,0,0,0,0,0,0,0,0,0,0,0,0,0,0,0,0,0,0,0,0,0,0,0,0,0,0,0,0,0,0,0,0,0,0,0,0,0,0,0,0,-0.0091,-0.0091,0,-0.0083,-0.0083,-0.0083,-0.0051,-0.0051,-0.005,-0.0049,-0.0012,-0.0012,-0.0011,0,0,0,0,0,0,0,0,0,0,0,0,0,-0.0048,-0.0049,-0.0091,-0.0091,-0.0091,-0.0083,-0.0083,-0.0083,-0.0051,-0.0051,-0.005,-0.0049,-0.0012,-0.0012,-0.0011,0,0,0,0,0,0,0,0,0,0,0,0,0,-0.0056,-0.0049,-0.0092,-0.0075,-0.0074,-0.0083,-0.0083,-0.0083,-0.0052,-0.0051,-0.005,-0.0049,-0.0012,-0.0012,-0.0011,-0.0028,0,0,-0.0009,-0.0009,0,0,0,0,0,0,0,0,-0.0055,-0.0057,-0.0078,-0.0076,-0.0075,-0.0068,-0.0054,-0.0063,-0.0052,-0.0059,-0.0049,-0.0048,-0.0029,-0.0027,-0.0027,-0.0026,-0.0024,-0.0009,-0.0009,-0.0009,-0.0009,0,0,0,0,0,0,0,-0.0055,-0.0057,-0.0088,-0.0078,-0.0076,-0.0057,-0.0057,-0.0055,-0.0049,-0.0059,-0.0057,-0.0057,-0.0028,-0.0028,-0.0026,-0.0024,-0.0009,-0.0009,-0.0008,-0.0008,-0.0007,-0.0007,0,0,0,0,0,0,-0.006,-0.0057,-0.0088,-0.0087,-0.0063,-0.0059,-0.0059,-0.0071,-0.005,-0.0046,-0.0058,-0.0055,-0.0029,-0.0027,-0.0025,-0.0028,-0.0009,-0.0008,-0.0008,-0.0007,-0.0007,-0.0008,0,0,0,0,0,0,-0.0059,-0.0063,-0.0088,-0.0071,-0.0073,-0.0061,-0.0074,-0.0071,-0.0067,-0.0049,-0.0044,-0.0056,-0.0028,-0.0025,-0.0017,-0.0027,-0.0008,-0.0007,-0.0006,-0.0007,-0.0007,-0.0044,0,0,0,0,0,0,-0.0058,-0.0063,-0.0074,-0.0072,-0.0075,-0.0099,-0.0075,-0.0071,-0.0069,-0.0066,-0.0047,-0.0042,-0.0027,-0.0018,-0.0017,-0.0026,-0.0007,-0.0006,-0.0007,-0.0007,-0.0043,-0.0046,-0.0049,0,0,0,0,0,-0.0057,-0.0082,-0.0075,-0.0079,-0.009,-0.0099,-0.0099,-0.0085,-0.007,-0.0076,-0.0055,-0.0043,-0.002,-0.0018,-0.0016,-0.0025,-0.0006,-0.0006,-0.0007,-0.0041,-0.0045,-0.0049,0,0,0,0,0,0,-0.0069,-0.0081,-0.0073,-0.01,-0.0099,-0.0094,-0.0101,-0.0089,-0.0079,-0.0071,-0.0048,-0.0043,-0.0041,-0.0028,-0.0026,-0.0026,-0.0011,-0.0011,-0.0038,-0.0041,-0.0044,-0.0039,-0.0007,0,0,0,0,0,-0.0077,-0.0098,-0.0099,-0.0118,-0.012,-0.0109,-0.0111,-0.01,-0.0091,-0.0085,-0.0071,-0.0054,-0.0045,-0.0038,-0.0031,-0.0032,0.0018,-0.0036,-0.0039,-0.0041,-0.0035,0.0038,0.0043,-0.001,-0.001,-0.001,0,0,-0.0087,-0.0095,-0.0107,-0.0122,-0.0119,-0.0133,-0.0108,-0.0113,-0.0121,-0.0084,-0.0089,-0.0068,-0.0049,-0.0049,-0.0046,-0.0036,-0.0001,-0.0042,-0.0045,-0.0037,0.0038,0.0043,0.0048,-0.001,-0.001,-0.001,0,0,-0.0118,-0.0124,-0.015,-0.0155,-0.0156,-0.015,-0.0153,-0.0148,-0.0141,-0.0142,-0.0115,-0.0094,-0.009,-0.0069,-0.006,-0.0075,-0.0022,-0.0079,-0.0087,-0.0016,-0.0011,-0.0005,0.0067,0.0079,-0.0077,-0.0077,-0.0077,0,-0.0121,-0.0161,-0.0157,-0.0181,-0.0184,-0.0161,-0.0179,-0.0179,-0.0169,-0.0153,-0.0148,-0.0108,-0.0098,-0.0076,-0.0085,-0.0082,-0.0028,-0.0076,-0.0018,-0.0012,-0.0006,0.0067,0.0081,-0.0078,-0.0078,-0.0078,-0.0078,0,-0.0174,-0.0199,-0.0215,-0.0236,-0.0238,-0.0251,-0.0244,-0.0241,-0.0223,-0.0204,-0.0176,-0.0151,-0.0115,-0.0119,-0.0111,-0.0069,-0.004,-0.0032,-0.0007,-0.0002,0.0074,0.0089,-0.0081,-0.008,-0.008,-0.0079,0,0,-0.0181,-0.024,-0.0243,-0.0261,-0.0264,-0.0273,-0.028,-0.0268,-0.0255,-0.0234,-0.0203,-0.019,-0.0147,-0.0133,-0.011,-0.0059,0.0019,-0.0032,-0.0027,0.0044,0.019,0.0136,0.0148,0.0045,0.0047,0.0049,0.0227,0,-0.0213,-0.0277,-0.0289,-0.0329,-0.0352,-0.0332,-0.034,-0.032,-0.0288,-0.0255,-0.0202,-0.0172,-0.0161,-0.0138,-0.0084,-0.001,0.0058,-0.0029,0.0171,0.0177,0.0132,0.0162,0.0056,0.0238,0.0242,0.0245,0.0246,0,-0.025,-0.0287,-0.0343,-0.0373,-0.0379,-0.0396,-0.0373,-0.0375,-0.0316,-0.0287,-0.0223,-0.0174,-0.0103,-0.0094,0.0063,0.0011,0.01,0.0162,0.0171,0.0145,0.0151,0.0233,0.0275,0.0273,0.027,0.0269,0.0267,0,-0.0256,-0.0316,-0.0363,-0.0376,-0.0409,-0.0417,-0.0418,-0.0376,-0.0367,-0.0291,-0.0257,-0.0157,-0.0103,0.0018,0.0135,0.0114,0.032,0.0312,0.0358,0.0356,0.0369,0.0362,0.0446,0.0446,0.0445,0.0445,0.0444,0,-0.028,-0.0312,-0.0376,-0.0404,-0.0437,-0.0438,-0.0443,-0.0426,-0.0383,-0.0353,-0.0269,-0.0215,-0.0071,0.0056,0.0164,0.0306,0.0356,0.037,0.04,0.0348,0.0336,0.0381,0.0371,0.0452,0.045,0.0449,0.0448,0,-0.0273,-0.0324,-0.0379,-0.0434,-0.045,-0.0466,-0.0481,-0.0473,-0.0431,-0.0385,-0.0361,-0.0236,-0.0078,0.0074,0.0279,0.0334,0.0477,0.0523,0.047,0.0492,0.0465,0.0451,0.0594,0.0594,0.0594,0.0593,0.0593,0,-0.0278,-0.0312,-0.04,-0.0435,-0.0464,-0.0492,-0.0505,-0.0495,-0.0483,-0.0396,-0.037,-0.0216,-0.0119,0.0152,0.0288,0.0508,0.0519,0.0593,0.051,0.0466,0.0482,0.0468,0.0455,0.0592,0.0592,0.0592,0.0592,0,-0.0271,-0.0309,-0.0357,-0.0437,-0.0479,-0.0516,-0.0536,-0.0537,-0.0504,-0.0474,-0.0352,-0.0216,-0.0039,0.0146,0.0317,0.0465,0.0536,0.059,0.0591,0.0513,0.0466,0.0478,0.0466,0.0591,0.0591,0.0591,0.0591,0,-0.0259,-0.0284,-0.036,-0.0418,-0.048,-0.0517,-0.0536,-0.0516,-0.0502,-0.042,-0.0376,-0.0183,-0.0072,0.0127,0.0285,0.0418,0.043,0.0445,0.0454,0.0457,0.0333,0.0248,0.0346,0,0,0,0,0,-0.0245,-0.0267,-0.0329,-0.0407,-0.0473,-0.0502,-0.0542,-0.0552,-0.0533,-0.045,-0.0415,-0.0248,-0.0019,0.0088,0.0215,0.0254,0.0437,0.04,0.0455,0.0585,0.0586,0.0455,0,0,0,0,0,0,-0.0239,-0.0285,-0.0314,-0.038,-0.0425,-0.0485,-0.0511,-0.0506,-0.0465,-0.0425,-0.0292,-0.0235,-0.0002,-0.0068,0.0224,0.026,0.0302,0.0511,0.0512,0.0584,0.0585,0.0586,0.0452,0,0,0,0,0]}]]